Погода Остров Голомянный

Погода Остров Голомянный : погода сейчас, прогноз погоды и архив. Всё, что Вы хотите узнать о погоде Остров Голомянный!

Хотите узнать прогноз погоды Остров Голомянный? Тогда Вам сюда: Погода Остров Голомянный

Поиск расширенной информации на нашем сайте:

Другие новости

Новости СМИ2

Главная страница сайта

Новости сайта

03.07.2017

Напоминаем, что на нашем специализированном сайте Метеоцентр.Азия вы можете получить высокодетализированные автоматические прогнозы погоды по пунктам России, СНГ и мира в авиационном формате (включающие направление и скорость ветра, видимость, явления погоды, количество и форму облачности, нижнюю и верхнюю границу облачности).


Погода Остров Голомянный - сегодня

Время (UTC), дата Ветер
(°,м/с) 
Видим.   Явления Облачность Т
(°С)
Тd
(°С)
f(%) Тe
(°С)
Pmin
(гПа)
dP
(гПа)
Po
(мм)
O2
(г/м3)
Тmin Tmax R s Состояние
почвы
18 18.01.18 040 (СВ) 20000 м    10/0 средняя 
[As trans]
-23 -25.6 79 -29  1037.9  778  344           
21 18.01.18 060 (СВ) 20000 м    10/0 средняя 
[As trans]
-23.2 -25.8 79 -29  1038.6  0.7  778  344           
00 19.01.18 070 (В) 20000 м  позёмок  10/0 средняя 
[As trans]
-22 -24.5 80 -30  1039.1  0.5  779  343  -24.9      33  неравномерный
сухой снег
100% 
03 19.01.18 050 (СВ) 20000 м    4/0 средняя 
[Ac trans]
-23.1 -25.7 79 -28  1039.5  0.3  779  345           
06 19.01.18 040 (СВ) 20000 м    3/0 верхняя 
[Ci fib]
-23.7 -26.3 79 -30  1040.3  0.9  779  346           
09 19.01.18 030 (СВ) 20000 м    4/0 верхняя 
[Ci fib]
-26 -28.9 77 -32  1041.1  0.8  780  349           
12 19.01.18 050 (СВ) 20000 м    3/0 верхняя 
[Ci fib]
-25.6 -28.4 77 -29  1042  0.8  781  349    -22       
15 19.01.18 070 (В) 20000 м    ясно 
-26.1 -29.1 76 -31  1042.1  0.1  781  350           
18 19.01.18 130 (ЮВ) 20000 м    ясно 
-28.9 -32.2 73 -33  1042.6  0.5  781  354           
21 19.01.18 130 (ЮВ) 20000 м    ясно 
-30 -33.4 72 -36  1042.3  -0.3  781  355           
00 20.01.18 160 (Ю) 20000 м    3/0 средняя 
[Ac trans]
-27.5 -30.7 74 -33  1042.4  0.1  781  352  -30.1      33  неравномерный
сухой снег
100% 
03 20.01.18 170 (Ю) 2000 м    10/0 средняя, верхняя 
[Ac trans|Ci fib]
-25.1 -27.9 77 -31  1042  -0.3  781  348           
06 20.01.18 180 (Ю) 4000 м  слаб. снег  10/0 средняя 
[As op]
-21.6 -24 81 -27  1041.7  -0.3  780  343           
09 20.01.18 180 (Ю) 20000 м  {снег}  3/0 верхняя 
[Ci fib]
-24.7 -27.5 77 -32  1041.3  -0.5  780  347           
12 20.01.18 190 (Ю) 20000 м  {снег}  4/0 верхняя 
[Ci fib]
-24.3 -27 78 -31  1040.4  -0.8  779  347    -20.5       
15 20.01.18 200 (Ю) 20000 м  позёмок  10/0 средняя 
[Ac und]
-22.2 -24.7 80 -30  1038.8  -1.6  778  343           
18 20.01.18 190 (Ю) 20000 м  позёмок  10/0 средняя 
[Ac und]
-21.7 -24.3 79 -29  1037.6  -1.3  777  342           
21 20.01.18 190 (Ю) 4000 м  слаб. снег  10/0 средняя 
[As op]
-19.3 -21.6 82 -26  1036.3  -1.2  776  338           
00 21.01.18 180 (Ю) 4000 м  слаб. снег  10/0 средняя 
[As op]
-17.7 -19.7 84 -24  1035.2  -1.1  776  336  -24.6    0.0  33  неравномерный
сухой снег
100% 
03 21.01.18 180 (Ю) 4000 м  слаб. снег  10/0 средняя 
[As op]
-17.1 -19 85 -22  1034.2  -1  775  335           
06 21.01.18 170 (Ю) 2000 м  снег  10/8 120 м средняя 
[Frnb|As op]
-16.5 -18.3 86 -21  1033.5  -0.7  774  334           
09 21.01.18 170 (Ю) 4000 м  слаб. снег  10/6 270 м средняя 
[Frnb|As op]
-14.8 -16.5 87 -20  1033.3  -0.2  774  331           
12 21.01.18 150 (ЮВ) 10 км  слаб. снег  10/8 800 м средняя 
[Sc|As op]
-13 -14.4 89 -17  1033.7  0.5  774  329    -13     
15 21.01.18 240 (ЮЗ) 4000 м  слаб. снег  10/9 100 м средняя 
[Frnb|As op]
-8.6 -9.6 92 -14  1033.1  -0.5  774  323           
18 21.01.18 250 (З) 4000 м  слаб. снег  10/8 240 м средняя 
[Frnb|As op]
-8.1 -9.2 92 -13  1033.1  -0.1  774  322           
Время (UTC), дата Ветер
(°,м/с) 
Видим.   Явления Облачность Т
(°С)
Тd
(°С)
f(%) Тe
(°С)
Pmin
(гПа)
dP
(гПа)
Po
(мм)
O2
(г/м3)
Тmin Tmax R s Состояние
почвы

Для получения пояснительной информации подведите курсор к названию столбца.

ПОГОДА Остров Голомянный - архив

Всё, что Вы хотите узнать о погоде Остров Голомянный - удобно и подробно!

Выберите нужную дату (начиная с 1 января 2015* года) и нажмите кнопку "Найти".
Будут отображены архивные сводки погоды по пункту Остров Голомянный, начиная с указанной даты.


Отображать данные в формате CSV (для использования в таблицах Excel)


Внимание! Наш архив погоды предназначен исключительно для личного некоммерческого использования в познавательных целях. Если Вам необходимы официальные справки о состоянии погоды (для производственных, юридических, коммерческих и т.п. целей), обращайтесь в органы Росгидромета.

*Примечание: данная дата относится к архиву по метеостанциям СССР (Россия, СНГ, Балтия).
Архив по метеостанциям Зарубежной Европы и Азии (кроме Китая) хранится 10 дней, по другим регионам земного шара (Китай, Африка, Америка, Австралия, Океания) - 1 день.

Остров Голомянный - район местоположения метеостанции


Название, широта, долгота, высота метеостанции:
Остров Голомянный 79.6°ш. 90.6°д. 8 м над ур. моря [Российская Федерация]

Дополнительная информация

В oтличие oт бoльшинства пoгoдных сайтoв мы публикуем пoдрoбную метеoинфoрмацию в детальнoм прoфессиoнальнoм фoрмате.

Характеристики температуры и влажнoсти вoздуха измеряются на высoте 2 м в тени вдали oт зданий и деревьев.
Скoрoсть ветра измеряется на высoте 10 м (на урoвне рoста челoвека скoрoсть ветра ниже в 1.5-2 раза). Если метеoстанция нахoдится в гoрoде или в лесу, тo скoрoсть ветра занижена на 2-4 м/с пo сравнению с oткрытым местoм. Скoрoсть ветра над акватoриями крупных рек и oзёр, а также на вершинах хoлмoв на 2-5 м/с выше, чем в oбычных услoвиях.
Атмoсфернoе давление в разных тoчках местнoсти мoжет значительнo oтличаться oт давления на метеoстанции, в зависимoсти oт услoвий рельефа (при пoдъёме на 10 м давление пoнижается примернo на 1 мм рт.ст.).